Regional Weather Roundup
Issued by NWS

Home | Current Version | Previous Version | Text Only | Print | Product List | Glossary On
Versions: 1 2 3 4 5 6 7 8 9 10 11 12 13 14 15 16 17 18 19 20 21 22 23 24 25 26 27 28 29 30 31 32 33 34 35 36 37 38 39 40 41 42 43 44 45 46 47 48 49 50
000
ASUS43 KMKX 050921
RWRWI

WISCONSIN REGIONAL WEATHER ROUNDUP
NATIONAL WEATHER SERVICE MILWAUKEE/SULLIVAN WI
400 AM CDT THU MAY 05 2016

NOTE: "FAIR" INDICATES FEW OR NO CLOUDS BELOW 12,000 FEET WITH NO
SIGNIFICANT WEATHER AND/OR OBSTRUCTIONS TO VISIBILITY.

WIZ001-002-006>008-014>016-023>028-051000-
NORTHWEST WISCONSIN

CITY           SKY/WX    TMP DP  RH WIND       PRES   REMARKS
SUPERIOR ARPT  CLOUDY    32  31  96 CALM      30.02R
ASHLAND        PTCLDY    28  28 100 CALM      30.01F
HAYWARD        PTCLDY    30  25  81 CALM      30.01S
SIREN          PTCLDY    33  28  80 CALM      30.01F
CUMBERLAND     CLEAR     34  30  86 CALM      30.01S
RICE LAKE      CLEAR     35  32  88 CALM      30.03S
CHETEK         CLEAR     32  30  93 NW3       30.02S
LADYSMITH      CLEAR     33  31  91 CALM      30.02F
EAU CLAIRE     CLEAR     34  29  82 E3        30.01R
MENOMONIE      CLEAR     36  29  78 CALM      30.02S
NEW RICHMOND   CLEAR     36  31  82 CALM      30.02S
OSCEOLA        PTCLDY    36  33  88 E3        30.04S
$$

WIZ003>005-009-010-017-018-051000-
NORTH CENTRAL WISCONSIN

CITY           SKY/WX    TMP DP  RH WIND       PRES   REMARKS
MANITOWISH WTR PTCLDY    29  29 100 CALM      29.99S
ARBOR VITAE    CLOUDY    32  30  92 CALM      29.99S
WOODRUFF       CLOUDY    32  30  92 CALM      29.99S
RHINELANDER    CLOUDY    26  23  88 CALM      30.00R
EAGLE RIVER    CLEAR     28  28 100 CALM      29.99R
LAND O LAKES   CLEAR     27  26  99 CALM      30.00S
PHILLIPS       PTCLDY    29  28  96 CALM      30.00S
TOMAHAWK       CLEAR     28  27  96 CALM      30.01R
MEDFORD        CLEAR     33  31  90 E3        29.99R
MERRILL        CLEAR    N/A N/A N/A CALM      30.01R
$$

WIZ029-030-035-036-043>047-051000-
CENTRAL WISCONSIN

CITY           SKY/WX    TMP DP  RH WIND       PRES   REMARKS
WAUSAU         PTCLDY    37  31  78 NW3       29.98S
MOSINEE        CLEAR     36  32  87 N5        30.00R WCI  32
MARSHFIELD     CLEAR     39  30  70 NE5       29.99R
STEVENS POINT  CLEAR     30  28  91 N3        30.00S
WAUPACA        CLEAR     38  32  80 CALM      29.99S
WAUTOMA        CLEAR     34  31  88 CALM      30.00R
WISC RAPIDS    CLEAR     37  30  75 N6        30.00S WCI  32
CAMP DOUGLAS   CLEAR     29  29 100 W3        30.00R
$$

WIZ011>013-019>022-031-037>040-048>050-051000-
NORTHEAST WISCONSIN

CITY           SKY/WX    TMP DP  RH WIND       PRES   REMARKS
ANTIGO         CLEAR     32  30  93 CALM      29.98R
SHAWANO        CLEAR     38  32  79 NW3       29.99S
OCONTO         CLEAR     35  32  90 N5        29.98R WCI  31
STURGEON BAY   CLEAR     37  30  75 N10       29.99R WCI  30
GREEN BAY      CLEAR     37  31  78 N8        29.97R WCI  31
MANITOWOC      CLEAR     37  32  82 NW9       29.96R WCI  30
APPLETON       CLEAR     36  30  80 N10       29.96R WCI  28
CLINTONVILLE   CLEAR     36  32  87 N6        29.99S WCI  31
OSHKOSH        CLEAR     36  30  79 N9        29.97R WCI  29
$$

WIZ032>034-041-042-053>061-051000-
SOUTHWEST WISCONSIN

CITY           SKY/WX    TMP DP  RH WIND       PRES   REMARKS
LA CROSSE      CLEAR     42  33  70 N3        30.01R
SPARTA         CLEAR     30  28  92 SE3       30.01S
VIROQUA        CLEAR     38  31  76 NE5       29.99R WCI  35
BOSCOBEL       CLEAR     38  33  82 CALM      30.00R
PRAIRIE DU CHI   N/A     37  32  81 CALM      30.00R HAZE
PLATTEVILLE    CLEAR     40  35  80 N9        29.97R WCI  35
$$

WIZ056-057-062-063-064-067-068-051000-
SOUTH CENTRAL WISCONSIN

CITY           SKY/WX    TMP DP  RH WIND       PRES   REMARKS
REEDSBURG      CLEAR     40  32  73 CALM      29.99R
BARABOO/DELLS  CLEAR     39  32  75 NE3       29.99R
LONE ROCK      CLEAR     40  32  73 CALM      30.00R
MINERAL POINT  CLEAR     41  32  70 N7        29.97R
MADISON        CLEAR     37  32  82 N7        29.97R WCI  32
MIDDLETON      CLEAR     37  33  87 CALM      29.98R
WATERTOWN      CLEAR     35  35  99 N6        29.95R WCI  30
MONROE         CLEAR     37  34  87 N12       29.95R WCI  30
JANESVILLE     CLEAR     41  34  75 N8        29.95R
$$

WIZ051-052-058>065-066-070>072-051000-
SOUTHEAST WISCONSIN

CITY           SKY/WX    TMP DP  RH WIND       PRES   REMARKS
MILWAUKEE      PTCLDY    41  32  70 N14G22    29.92R
WAUKESHA       CLEAR     34  30  86 N6        29.94S WCI  29
MILWAUKEE/TIMM CLEAR     36  30  80 N7        29.95R WCI  30
RACINE         PTCLDY    41  32  70 N14G25    29.93R
BURLINGTON     CLOUDY    37  32  81 N7        29.93R WCI  32
KENOSHA        MOCLDY    41  32  70 N10       29.91S
FOND DU LAC    CLEAR     40  33  76 N12       29.96S WCI  33
SHEBOYGAN      PTCLDY    38  31  76 N8        29.94R WCI  32
WEST BEND      PTCLDY    36  32  87 N6        29.94R WCI  31
JUNEAU         CLEAR     35  32  87 NW5       29.97R WCI  31
$$

LSZ147-162-051000-
LAKE SUPERIOR

STATION/POSITION TIME  TEMP    WIND        PRES    WAVE
                       AIR SEA DIR/SP/G            HT/PER
                 (UTC) (F)     (DEG/KT/KT) (MB)    (FT/S)
W MID LAKE BUOY  0850   37 36     CALM     1016.9F   1/ 5
DEVILS ISLAND    0900   38     110/  5/  6 1016.8F
SAXON HARBOR     0800   31     190/  3/  4 1016.3S
$$

LMZ867-665-643>646-051000-
LAKE MICHIGAN

STATION/POSITION TIME  TEMP    WIND        PRES    WAVE
                       AIR SEA DIR/SP/G            HT/PER
                 (UTC) (F)     (DEG/KT/KT) (MB)    (FT/S)
CHAMBERS ISLAND  0800   39     340/ 12/ 13 1014.9R
N MID LAKE BUOY  0850   38 38  340/ 12/ 16 1013.9R   2/ 4
NORTHPORT PIER   0823   39     360/ 11/ 16 1014.6R
ALGOMA LAKESHORE 0815          330/  9/ 11   N/A
KEWAUNEE LAKESHO 0900   38     330/  7/  9 1013.6R
SHEBOYGAN LAKESH 0900   42     350/ 18/ 20 1014.7R
PORT WASHINGTON  0800   41     330/  7/ 11 1014.2
S MID LAKE BUOY  0850   40 40   20/ 19/ 23 1011.5R   7/ 8
KENOSHA   LAKESH 0900   42      10/ 23/ 26 1012.9R
$$

TC  - TEMPERATURE IN CELSIUS
VSB - VISIBILITY IN STATUTE MILES
WCI - WIND CHILL INDEX
HX  - HEAT INDEX





USA.gov is the U.S. government's official web portal to all federal, state and local government web resources and services.